Weather History for K0A9 - December, 2013

Change the Weather History Date:

Tuesday, December 17, 2013

  Actual Average (KTRI) Record (KTRI)
Temperature  
Mean Temperature 38 °F 37 °F  
Max Temperature 51 °F 47 °F 69 °F (2001)
Min Temperature 24 °F 27 °F 6 °F (1989)
Degree Days  
Heating Degree Days 28 28  
Month to date heating degree days 440  
Since 1 July heating degree days 1326  
Cooling Degree Days 0 0  
Month to date cooling degree days 0  
Year to date cooling degree days 981  
Moisture  
Dew Point 28 °F    
Average Humidity 72    
Maximum Humidity 100    
Minimum Humidity 44    
Precipitation  
Precipitation 0.00 in 0.11 in 1.11 in (1961)
Month to date precipitation 1.92  
Year to date precipitation 39.56  
Snow  
Snow 0.00 in 0.10 in - ()
Month to date snowfall 1.1  
Since 1 July snowfall 1.4  
Snow Depth -    
Sea Level Pressure  
Sea Level Pressure 30.07 in    
Wind  
Wind Speed 4 mph (West)    
Max Wind Speed 20 mph    
Max Gust Speed 34 mph    
Visibility 10 miles    
Events Rain    
T = Trace of Precipitation, MM = Missing Value Source: NWS Daily Summary

Daily Weather History Graph

Daily Weather History Graph

Search for Another Location

Airport or City:

Trip Planner

Search our weather history database for the weather conditions in past years. The results will help you decide how hot, cold, wet, or windy it might be!

Date:

Astronomy

Dec. 17, 2013 Rise Set
Actual Time 7:34 AM EST 5:15 PM EST
Civil Twilight 7:05 AM EST 5:44 PM EST
Nautical Twilight 6:33 AM EST 6:16 PM EST
Astronomical Twilight 6:01 AM EST 6:48 PM EST
Moon 5:52 PM EST (12/17) 7:31 AM EST (12/17)
Length of Visible Light 10h 38m
Length of Day
9h 41m
Full, 100% of the Moon is Illuminated
Dec 17
Full
Dec 25
Last Quarter
Jan 1
New
Jan 7
First Quarter
Jan 15
Full

Hourly Weather History & Observations

Time (EST) Temp. Windchill Dew Point Humidity Pressure Visibility Wind Dir Wind Speed Gust Speed Precip Events Conditions
12:15 AM 26.6 °F - 24.8 °F 93% 30.15 in 10.0 mi Calm Calm - N/A   Clear
12:55 AM 26.6 °F - 26.6 °F 100% 30.13 in 9.0 mi Calm Calm - N/A   Clear
1:15 AM 24.8 °F - 24.8 °F 100% 30.12 in 10.0 mi Calm Calm - N/A   Clear
1:35 AM 24.8 °F - 24.8 °F 100% 30.12 in 8.0 mi Calm Calm - N/A   Clear
1:55 AM 24.8 °F - 24.8 °F 100% 30.13 in 8.0 mi Calm Calm - N/A   Clear
2:15 AM 24.8 °F - 24.8 °F 100% 30.13 in 9.0 mi Calm Calm - N/A   Clear
2:35 AM 24.8 °F - 24.8 °F 100% 30.13 in 10.0 mi Calm Calm - N/A   Clear
2:55 AM 24.8 °F - 24.8 °F 100% 30.13 in 9.0 mi Calm Calm - N/A   Clear
3:15 AM 24.8 °F - 24.8 °F 100% 30.14 in 9.0 mi Calm Calm - N/A   Clear
3:35 AM 24.8 °F - 24.8 °F 100% 30.13 in 10.0 mi Calm Calm - N/A   Clear
3:55 AM 26.6 °F - 24.8 °F 93% 30.13 in 10.0 mi Calm Calm - N/A   Clear
4:15 AM 26.6 °F - 26.6 °F 100% 30.12 in 10.0 mi Calm Calm - N/A   Clear
4:35 AM 24.8 °F - 24.8 °F 100% 30.12 in 10.0 mi Calm Calm - N/A   Clear
4:55 AM 26.6 °F - 24.8 °F 93% 30.12 in 10.0 mi Calm Calm - N/A   Clear
5:15 AM 26.6 °F - 24.8 °F 93% 30.12 in 10.0 mi Calm Calm - N/A   Clear
5:35 AM 24.8 °F - 24.8 °F 100% 30.11 in 10.0 mi Calm Calm - N/A   Clear
5:55 AM 24.8 °F - 24.8 °F 100% 30.12 in 10.0 mi Calm Calm - N/A   Clear
6:15 AM 24.8 °F - 24.8 °F 100% 30.12 in 10.0 mi Calm Calm - N/A   Clear
6:35 AM 24.8 °F - 24.8 °F 100% 30.12 in 10.0 mi Calm Calm - N/A   Clear
6:55 AM 24.8 °F - 24.8 °F 100% 30.12 in 10.0 mi Calm Calm - N/A   Clear
7:15 AM 24.8 °F - 24.8 °F 100% 30.12 in 10.0 mi Calm Calm - N/A   Clear
7:35 AM 26.6 °F - 24.8 °F 93% 30.12 in 10.0 mi Calm Calm - N/A   Clear
7:55 AM 24.8 °F - 24.8 °F 100% 30.12 in 10.0 mi Calm Calm - N/A   Clear
8:15 AM 26.6 °F - 26.6 °F 100% 30.12 in 10.0 mi Calm Calm - N/A   Clear
8:35 AM 28.4 °F - 28.4 °F 100% 30.11 in 10.0 mi Calm Calm - N/A   Clear
8:55 AM 32.0 °F - 28.4 °F 87% 30.11 in 10.0 mi Calm Calm - N/A   Clear
9:15 AM 33.8 °F - 30.2 °F 87% 30.11 in 10.0 mi Calm Calm - N/A   Clear
9:35 AM 35.6 °F - 30.2 °F 81% 30.11 in 10.0 mi Calm Calm - N/A   Clear
9:55 AM 39.2 °F - 33.8 °F 81% 30.11 in 10.0 mi Calm Calm - N/A   Clear
10:15 AM 42.8 °F 39.3 °F 33.8 °F 70% 30.11 in 10.0 mi Variable 5.8 mph - N/A   Clear
10:35 AM 46.4 °F 41.1 °F 30.2 °F 53% 30.11 in 10.0 mi West 11.5 mph - N/A   Clear
10:55 AM 46.4 °F 41.9 °F 30.2 °F 53% 30.11 in 10.0 mi WNW 9.2 mph - N/A   Partly Cloudy
11:15 AM 46.4 °F 42.4 °F 30.2 °F 53% 30.10 in 10.0 mi WNW 8.1 mph - N/A   Scattered Clouds
11:35 AM 46.4 °F 42.4 °F 30.2 °F 53% 30.09 in 10.0 mi West 8.1 mph - N/A   Mostly Cloudy
11:55 AM 46.4 °F 42.4 °F 30.2 °F 53% 30.08 in 10.0 mi West 8.1 mph - N/A   Mostly Cloudy
12:15 PM 48.2 °F - 30.2 °F 50% 30.05 in 10.0 mi West 10.4 mph - N/A   Mostly Cloudy
12:35 PM 51.8 °F - 32.0 °F 47% 30.04 in 10.0 mi Variable 6.9 mph - N/A   Mostly Cloudy
12:55 PM 50.0 °F - 32.0 °F 50% 30.02 in 10.0 mi WSW 11.5 mph - N/A   Scattered Clouds
1:15 PM 50.0 °F - 32.0 °F 50% 30.01 in 10.0 mi WSW 10.4 mph - N/A   Mostly Cloudy
1:35 PM 51.8 °F - 32.0 °F 47% 30.00 in 10.0 mi WSW 13.8 mph - N/A   Overcast
1:55 PM 51.8 °F - 32.0 °F 47% 29.99 in 10.0 mi SW 12.7 mph - N/A   Overcast
2:15 PM 51.8 °F - 32.0 °F 47% 29.97 in 10.0 mi WSW 9.2 mph - N/A   Overcast
2:35 PM 51.8 °F - 32.0 °F 47% 29.96 in 10.0 mi WSW 15.0 mph - N/A   Overcast
2:55 PM 51.8 °F - 32.0 °F 47% 29.95 in 10.0 mi WSW 17.3 mph - N/A   Mostly Cloudy
3:15 PM 51.8 °F - 32.0 °F 47% 29.95 in 10.0 mi West 8.1 mph - N/A   Partly Cloudy
3:35 PM 51.8 °F - 30.2 °F 44% 29.94 in 10.0 mi WSW 15.0 mph - N/A   Scattered Clouds
3:55 PM 51.8 °F - 32.0 °F 47% 29.94 in 10.0 mi WSW 12.7 mph - N/A   Partly Cloudy
4:15 PM 51.8 °F - 30.2 °F 44% 29.94 in 10.0 mi WSW 15.0 mph - N/A   Clear
4:35 PM 50.0 °F - 30.2 °F 47% 29.95 in 10.0 mi West 9.2 mph - N/A   Clear
4:55 PM 50.0 °F - 30.2 °F 47% 29.94 in 10.0 mi West 9.2 mph 23.0 mph N/A   Clear
5:15 PM 48.2 °F - 30.2 °F 50% 29.94 in 10.0 mi WSW 13.8 mph - N/A   Mostly Cloudy
5:35 PM 48.2 °F - 30.2 °F 50% 29.95 in 10.0 mi West 12.7 mph - N/A   Mostly Cloudy
5:55 PM 48.2 °F - 30.2 °F 50% 29.95 in 10.0 mi West 16.1 mph - N/A   Mostly Cloudy
6:15 PM 48.2 °F - 32.0 °F 54% 29.96 in 10.0 mi WSW 15.0 mph - N/A Rain Light Rain
6:35 PM 42.8 °F 34.3 °F 37.4 °F 81% 30.00 in 4.0 mi West 19.6 mph 34.5 mph N/A Rain Heavy Rain
6:55 PM 42.8 °F 39.3 °F 37.4 °F 81% 30.01 in 10.0 mi Variable 5.8 mph - N/A   Light Drizzle
7:15 PM 42.8 °F 36.6 °F 35.6 °F 76% 30.02 in 10.0 mi West 11.5 mph - N/A   Mostly Cloudy
7:35 PM 42.8 °F 36.6 °F 33.8 °F 70% 30.04 in 10.0 mi NW 11.5 mph - N/A Rain Light Rain
7:55 PM 39.2 °F 35.9 °F 30.2 °F 70% 30.05 in 10.0 mi West 4.6 mph - N/A Rain Light Rain
8:15 PM 39.2 °F 33.0 °F 30.2 °F 70% 30.05 in 10.0 mi West 9.2 mph - N/A   Mostly Cloudy
8:35 PM 39.2 °F 34.2 °F 28.4 °F 65% 30.07 in 10.0 mi Variable 6.9 mph - N/A   Mostly Cloudy
8:55 PM 39.2 °F 33.6 °F 24.8 °F 56% 30.07 in 10.0 mi West 8.1 mph - N/A   Clear
9:15 PM 39.2 °F 32.5 °F 23.0 °F 52% 30.08 in 10.0 mi WSW 10.4 mph - N/A   Scattered Clouds
9:35 PM 39.2 °F 32.5 °F 23.0 °F 52% 30.09 in 10.0 mi WSW 10.4 mph - N/A   Partly Cloudy
9:55 PM 37.4 °F 33.8 °F 23.0 °F 56% 30.11 in 10.0 mi Variable 4.6 mph - N/A   Clear
10:15 PM 37.4 °F 30.3 °F 21.2 °F 52% 30.11 in 10.0 mi West 10.4 mph - N/A Rain Light Rain
10:35 PM 37.4 °F 30.3 °F 21.2 °F 52% 30.12 in 10.0 mi West 10.4 mph - N/A   Mostly Cloudy
10:55 PM 37.4 °F 29.3 °F 21.2 °F 52% 30.12 in 10.0 mi West 12.7 mph - N/A   Scattered Clouds
11:15 PM 37.4 °F 32.8 °F 19.4 °F 48% 30.13 in 10.0 mi Variable 5.8 mph - N/A   Partly Cloudy
11:35 PM 35.6 °F 30.7 °F 19.4 °F 52% 30.14 in 10.0 mi West 5.8 mph - N/A   Clear
11:55 PM 35.6 °F 27.5 °F 17.6 °F 48% 30.15 in 10.0 mi West 11.5 mph - N/A   Clear